Ashtabula, OH

12:19 AM EST on December 12, 2019 (GMT -0500)
Ashtabula County

Weather History for KHZY - September, 2019

Change the Weather History Date:

Tuesday, September 3, 2019

  Actual Average (KGKJ) Record (KGKJ)
Temperature  
Mean Temperature 68 °F -  
Max Temperature 81 °F 78 °F 98 °F (1953)
Min Temperature 57 °F 53 °F 40 °F (1970)
Cooling Degree Days 4    
Growing Degree Days 18 (Base 50)    
Moisture  
Dew Point 62 °F    
Average Humidity 82    
Maximum Humidity 100    
Minimum Humidity 54    
Precipitation  
Precipitation 0.00 in - - ()
Sea Level Pressure  
Sea Level Pressure 30.00 in    
Wind  
Wind Speed 4 mph (South)    
Max Wind Speed 16 mph    
Max Gust Speed 22 mph    
Visibility 10 miles    
Events      
Averages and records for this station are not official NWS values.
T = Trace of Precipitation, MM = Missing Value Source: NWS Daily Summary

Daily Weather History Graph

Daily Weather History Graph

Search for Another Location

Airport or City:

Astronomy

Sep. 03, 2019 Rise Set
Actual Time 6:50 AM EDT 7:53 PM EDT
Civil Twilight 6:21 AM EDT 8:21 PM EDT
Nautical Twilight 5:47 AM EDT 8:55 PM EDT
Astronomical Twilight 5:12 AM EDT 9:30 PM EDT
Moon 11:45 AM EDT (9/3) 10:44 PM EDT (9/3)
Length of Visible Light 13h 59m
Length of Day
13h 02m
Waxing Crescent, 24% of the Moon is Illuminated
Sep 3
Waxing Crescent
Sep 5
First Quarter
Sep 14
Full
Sep 21
Last Quarter
Sep 28
New

Hourly Weather History & Observations

Time (EDT) Temp. Heat Index Dew Point Humidity Pressure Visibility Wind Dir Wind Speed Gust Speed Precip Events Conditions
12:53 AM 61.0 °F - 61.0 °F 100% 30.07 in 10.0 mi Calm Calm - N/A   Overcast
1:49 AM 60.8 °F - 60.8 °F 100% 30.09 in 10.0 mi Calm Calm - N/A   Mostly Cloudy
1:53 AM 62.1 °F - 61.0 °F 96% 30.07 in 10.0 mi Calm Calm - N/A   Mostly Cloudy
2:25 AM 62.1 °F - 61.0 °F 96% 30.07 in 10.0 mi Calm Calm - N/A   Mostly Cloudy
2:53 AM 61.0 °F - 60.1 °F 97% 30.05 in 10.0 mi Calm Calm - N/A   Clear
3:53 AM 59.0 °F - 59.0 °F 100% 30.05 in 6.0 mi Calm Calm - N/A   Clear
4:53 AM 60.1 °F - 59.0 °F 96% 30.05 in 10.0 mi Calm Calm - N/A   Clear
5:53 AM 59.0 °F - 59.0 °F 100% 30.06 in 7.0 mi ESE 3.5 mph - N/A   Clear
6:26 AM 57.9 °F - 57.9 °F 100% 30.08 in 7.0 mi Calm Calm - N/A   Mostly Cloudy
6:53 AM 59.0 °F - 59.0 °F 100% 30.08 in 7.0 mi Calm Calm - N/A   Overcast
7:35 AM 61.0 °F - 61.0 °F 100% 30.09 in 8.0 mi Calm Calm - N/A   Scattered Clouds
7:53 AM 62.1 °F - 61.0 °F 96% 30.07 in 10.0 mi South 3.5 mph - N/A   Clear
8:53 AM 64.9 °F - 64.0 °F 97% 30.06 in 10.0 mi South 8.1 mph - N/A   Clear
9:53 AM 68.0 °F - 64.9 °F 90% 30.06 in 10.0 mi South 8.1 mph - N/A   Clear
10:53 AM 73.0 °F - 66.0 °F 79% 30.06 in 10.0 mi SSW 8.1 mph - N/A   Clear
11:53 AM 75.0 °F - 63.0 °F 66% 30.04 in 10.0 mi SSW 9.2 mph - N/A   Clear
12:53 PM 77.0 °F - 64.9 °F 66% 30.01 in 10.0 mi SSW 9.2 mph - N/A   Clear
1:53 PM 80.1 °F 81.7 °F 64.0 °F 58% 29.98 in 10.0 mi South 13.8 mph 19.6 mph N/A   Partly Cloudy
2:53 PM 79.0 °F - 62.1 °F 56% 29.94 in 10.0 mi SSW 16.1 mph - N/A   Clear
3:53 PM 80.1 °F 81.2 °F 62.1 °F 54% 29.92 in 10.0 mi South 15.0 mph - N/A   Partly Cloudy
4:53 PM 80.1 °F 81.5 °F 63.0 °F 56% 29.89 in 10.0 mi SSW 13.8 mph - N/A   Clear
5:53 PM 80.1 °F 81.7 °F 64.0 °F 58% 29.88 in 10.0 mi South 15.0 mph 21.9 mph N/A   Clear
6:53 PM 77.0 °F - 63.0 °F 62% 29.89 in 10.0 mi SSW 9.2 mph - N/A   Clear
7:53 PM 75.0 °F - 64.0 °F 69% 29.90 in 10.0 mi SSW 8.1 mph - N/A   Clear
8:53 PM 72.0 °F - 64.0 °F 76% 29.89 in 10.0 mi South 6.9 mph - N/A   Clear
9:53 PM 72.0 °F - 64.0 °F 76% 29.89 in 10.0 mi South 8.1 mph - N/A   Mostly Cloudy
10:53 PM 73.0 °F - 64.9 °F 76% 29.87 in 10.0 mi South 10.4 mph - N/A   Scattered Clouds
11:53 PM 73.9 °F - 64.9 °F 73% 29.86 in 10.0 mi SSW 10.4 mph - N/A   Mostly Cloudy